| time (UTC) | temp F | wind direction | speed knots | gust knots | rain 1hr in | rain 24hr in | rain mn in | humidity % | barometer mb |
| 20260506051141 | 66 | 296 | 1.7 | 6.1 | 0.00 | 0.00 | 0.00 | 59 | 1011.6 |
| 20260506050636 | 66 | 278 | 1.7 | 6.1 | 0.00 | 0.00 | 0.00 | 59 | 1011.6 |
| 20260506050425 | 66 | 276 | 1.7 | 6.1 | 0.00 | 0.00 | 0.00 | 59 | 1011.6 |
| 20260506045118 | 67 | 294 | 3.5 | 6.1 | 0.00 | 0.00 | 0.00 | 59 | 1011.5 |
| 20260506044853 | 67 | 267 | 3.5 | 6.1 | 0.00 | 0.00 | 0.00 | 59 | 1011.4 |
| 20260506044104 | 67 | 260 | 3.5 | 6.1 | 0.00 | 0.00 | 0.00 | 58 | 1011.3 |
| 20260506043558 | 67 | 279 | 2.6 | 6.1 | 0.00 | 0.00 | 0.00 | 57 | 1011.3 |
| 20260506043053 | 67 | 300 | 2.6 | 6.1 | 0.00 | 0.00 | 0.00 | 56 | 1011.3 |
| 20260506042600 | 68 | 271 | 1.7 | 4.3 | 0.00 | 0.00 | 0.00 | 54 | 1011.1 |
| 20260506041534 | 68 | 296 | 2.6 | 6.1 | 0.00 | 0.00 | 0.00 | 52 | 1011.0 |
| 20260506041029 | 68 | 281 | 2.6 | 6.1 | 0.00 | 0.00 | 0.00 | 52 | 1010.9 |
| 20260506040808 | 68 | 288 | 1.7 | 3.5 | 0.00 | 0.00 | 0.00 | 50 | 1010.9 |
| 20260506040303 | 68 | 298 | 0.9 | 2.6 | 0.00 | 0.00 | 0.00 | 48 | 1010.8 |
| 20260506035511 | 68 | 303 | 0.0 | 2.6 | 0.00 | 0.00 | 0.00 | 47 | 1010.7 |
| 20260506035005 | 68 | 304 | 0.0 | 0.9 | 0.00 | 0.00 | 0.00 | 47 | 1010.7 |
| 20260506034501 | 69 | 304 | 0.0 | 1.7 | 0.00 | 0.00 | 0.00 | 47 | 1010.6 |
| 20260506033953 | 69 | 304 | 0.0 | 1.7 | 0.00 | 0.00 | 0.00 | 46 | 1010.5 |
| 20260506033448 | 69 | 304 | 0.0 | 1.7 | 0.00 | 0.00 | 0.00 | 45 | 1010.3 |
| 20260506032941 | 70 | 304 | 0.0 | 0.9 | 0.00 | 0.00 | 0.00 | 45 | 1010.3 |
| 20260506032725 | 71 | 304 | 0.0 | 1.7 | 0.00 | 0.00 | 0.00 | 44 | 1010.3 |
| 20260506031929 | 71 | 304 | 0.0 | 1.7 | 0.00 | 0.00 | 0.00 | 43 | 1010.2 |
| 20260506031423 | 72 | 304 | 0.9 | 2.6 | 0.00 | 0.00 | 0.00 | 42 | 1010.2 |
| 20260506030918 | 73 | 306 | 1.7 | 4.3 | 0.00 | 0.00 | 0.00 | 42 | 1010.2 |
| 20260506030648 | 73 | 306 | 1.7 | 4.3 | 0.00 | 0.00 | 0.00 | 41 | 1010.2 |
| 20260506030148 | 74 | 304 | 2.6 | 4.3 | 0.00 | 0.00 | 0.00 | 41 | 1010.1 |
| 20260506025401 | 74 | 304 | 2.6 | 6.1 | 0.00 | 0.00 | 0.00 | 40 | 1010.1 |
| 20260506024853 | 74 | 300 | 2.6 | 6.1 | 0.00 | 0.00 | 0.00 | 40 | 1010.1 |
| 20260506024351 | 74 | 324 | 1.7 | 6.1 | 0.00 | 0.00 | 0.00 | 39 | 1009.9 |
| 20260506024141 | 75 | 313 | 1.7 | 4.3 | 0.00 | 0.00 | 0.00 | 39 | 1009.9 |
| 20260506023636 | 75 | 325 | 2.6 | 6.1 | 0.00 | 0.00 | 0.00 | 38 | 1009.9 |
| 20260506023145 | 75 | 296 | 2.6 | 7.8 | 0.00 | 0.00 | 0.00 | 37 | 1009.8 |
| 20260506022422 | 76 | 342 | 1.7 | 5.2 | 0.00 | 0.00 | 0.00 | 33 | 1009.8 |
| 20260506022352 | 76 | 348 | 2.6 | 7.8 | 0.00 | 0.00 | 0.00 | 35 | 1009.8 |
| 20260506022156 | 76 | 344 | 1.7 | 7.0 | 0.00 | 0.00 | 0.00 | 34 | 1009.7 |
| 20260506021352 | 76 | 344 | 1.7 | 7.0 | 0.00 | 0.00 | 0.00 | 34 | 1009.7 |
| 20260506020852 | 76 | 38 | 2.6 | 7.8 | 0.00 | 0.00 | 0.00 | 34 | 1009.7 |
| 20260506020351 | 76 | 19 | 2.6 | 7.8 | 0.00 | 0.00 | 0.00 | 33 | 1009.7 |
| 20260506015847 | 76 | 54 | 2.6 | 7.0 | 0.00 | 0.00 | 0.00 | 33 | 1009.7 |
| 20260506015347 | 77 | 351 | 2.6 | 7.8 | 0.00 | 0.00 | 0.00 | 33 | 1009.6 |
| 20260506014847 | 77 | 355 | 1.7 | 7.8 | 0.00 | 0.00 | 0.00 | 33 | 1009.6 |
| 20260506014348 | 77 | 29 | 2.6 | 7.8 | 0.00 | 0.00 | 0.00 | 33 | 1009.6 |
| 20260506013848 | 78 | 32 | 3.5 | 9.6 | 0.00 | 0.00 | 0.00 | 32 | 1009.6 |
| 20260506013347 | 78 | 337 | 3.5 | 12.2 | 0.00 | 0.00 | 0.00 | 31 | 1009.6 |
| 20260506012851 | 79 | 344 | 3.5 | 12.2 | 0.00 | 0.00 | 0.00 | 32 | 1009.6 |
| 20260506012349 | 79 | 53 | 2.6 | 9.6 | 0.00 | 0.00 | 0.00 | 31 | 1009.4 |
| 20260506011850 | 79 | 46 | 2.6 | 9.6 | 0.00 | 0.00 | 0.00 | 32 | 1009.5 |
| 20260506011341 | 79 | 54 | 2.6 | 8.7 | 0.00 | 0.00 | 0.00 | 32 | 1009.5 |
| 20260506010836 | 79 | 19 | 3.5 | 8.7 | 0.00 | 0.00 | 0.00 | 32 | 1009.5 |
| 20260506010403 | 80 | 333 | 4.3 | 10.4 | 0.00 | 0.00 | 0.00 | 31 | 1009.3 |
| 20260506010348 | 79 | 346 | 5.2 | 10.4 | 0.00 | 0.00 | 0.00 | 32 | 1009.4 |
| 20260506005318 | 79 | 355 | 2.6 | 7.0 | 0.00 | 0.00 | 0.00 | 32 | 1009.3 |
| 20260506004811 | 79 | 51 | 2.6 | 7.8 | 0.00 | 0.00 | 0.00 | 32 | 1009.4 |
| 20260506004304 | 79 | 13 | 3.5 | 8.7 | 0.00 | 0.00 | 0.00 | 32 | 1009.4 |
| 20260506004040 | 79 | 351 | 3.5 | 8.7 | 0.00 | 0.00 | 0.00 | 31 | 1009.3 |
| 20260506003252 | 81 | 333 | 2.6 | 8.7 | 0.00 | 0.00 | 0.00 | 31 | 1009.2 |
| 20260506002746 | 81 | 355 | 2.6 | 8.7 | 0.00 | 0.00 | 0.00 | 31 | 1009.2 |
| 20260506002528 | 81 | 58 | 3.5 | 12.2 | 0.00 | 0.00 | 0.00 | 31 | 1009.2 |
| 20260506002007 | 81 | 42 | 3.5 | 12.2 | 0.00 | 0.00 | 0.00 | 30 | 1009.2 |
| 20260506001228 | 81 | 324 | 4.3 | 9.6 | 0.00 | 0.00 | 0.00 | 30 | 1009.2 |
| 20260506000722 | 81 | 43 | 4.3 | 11.3 | 0.00 | 0.00 | 0.00 | 30 | 1009.2 |
| 20260506000221 | 81 | 12 | 3.5 | 11.3 | 0.00 | 0.00 | 0.00 | 30 | 1009.1 |
| 20260505235710 | 81 | 24 | 4.3 | 9.6 | 0.00 | 0.00 | 0.00 | 30 | 1009.2 |
| 20260505235443 | 82 | 11 | 4.3 | 10.4 | 0.00 | 0.00 | 0.00 | 30 | 1009.3 |
| 20260505234659 | 82 | 347 | 3.5 | 10.4 | 0.00 | 0.00 | 0.00 | 30 | 1009.3 |
| 20260505234151 | 82 | 57 | 3.5 | 9.6 | 0.00 | 0.00 | 0.00 | 30 | 1009.3 |
| 20260505233645 | 82 | 67 | 3.5 | 9.6 | 0.00 | 0.00 | 0.00 | 30 | 1009.3 |
| 20260505233427 | 82 | 338 | 3.5 | 7.0 | 0.00 | 0.00 | 0.00 | 30 | 1009.2 |
| 20260505232923 | 81 | 10 | 4.3 | 13.9 | 0.00 | 0.00 | 0.00 | 31 | 1009.3 |
| 20260505232128 | 81 | 0 | 5.2 | 13.9 | 0.00 | 0.00 | 0.00 | 31 | 1009.3 |
| 20260505231639 | 81 | 341 | 3.5 | 10.4 | 0.00 | 0.00 | 0.00 | 30 | 1009.3 |
| 20260505231634 | 81 | 317 | 4.3 | 10.4 | 0.00 | 0.00 | 0.00 | 31 | 1009.3 |
| 20260505230612 | 81 | 355 | 4.3 | 9.6 | 0.00 | 0.00 | 0.00 | 29 | 1009.3 |
| 20260505230105 | 81 | 355 | 5.2 | 9.6 | 0.00 | 0.00 | 0.00 | 29 | 1009.3 |
| 20260505225833 | 81 | 355 | 4.3 | 9.6 | 0.00 | 0.00 | 0.00 | 29 | 1009.3 |
| 20260505225137 | 81 | 19 | 5.2 | 13.0 | 0.00 | 0.00 | 0.00 | 29 | 1009.4 |
| 20260505225123 | 82 | 275 | 4.3 | 9.6 | 0.00 | 0.00 | 0.00 | 28 | 1009.3 |
| 20260505224042 | 82 | 337 | 4.3 | 10.4 | 0.00 | 0.00 | 0.00 | 29 | 1009.3 |
| 20260505223807 | 82 | 17 | 3.5 | 10.4 | 0.00 | 0.00 | 0.00 | 29 | 1009.2 |
| 20260505223029 | 82 | 28 | 2.6 | 8.7 | 0.00 | 0.00 | 0.00 | 29 | 1009.3 |
| 20260505222522 | 82 | 27 | 2.6 | 7.0 | 0.00 | 0.00 | 0.00 | 30 | 1009.3 |
| 20260505222250 | 81 | 54 | 3.5 | 13.0 | 0.00 | 0.00 | 0.00 | 30 | 1009.3 |
| 20260505221511 | 82 | 24 | 3.5 | 13.0 | 0.00 | 0.00 | 0.00 | 29 | 1009.3 |
| 20260505221005 | 82 | 61 | 2.6 | 8.7 | 0.00 | 0.00 | 0.00 | 30 | 1009.4 |
| 20260505220504 | 81 | 25 | 3.5 | 8.7 | 0.00 | 0.00 | 0.00 | 30 | 1009.4 |
| 20260505220226 | 81 | 321 | 4.3 | 9.6 | 0.00 | 0.00 | 0.00 | 29 | 1009.4 |
| 20260505215504 | 82 | 313 | 3.5 | 9.6 | 0.00 | 0.00 | 0.00 | 30 | 1009.5 |
| 20260505215008 | 82 | 34 | 2.6 | 7.0 | 0.00 | 0.00 | 0.00 | 31 | 1009.4 |
| 20260505214505 | 81 | 42 | 2.6 | 8.7 | 0.00 | 0.00 | 0.00 | 30 | 1009.5 |
| 20260505214238 | 81 | 69 | 3.5 | 8.7 | 0.00 | 0.00 | 0.00 | 31 | 1009.6 |
| 20260505213504 | 81 | 20 | 3.5 | 8.7 | 0.00 | 0.00 | 0.00 | 31 | 1009.6 |
| 20260505213250 | 80 | 344 | 3.5 | 9.6 | 0.00 | 0.00 | 0.00 | 32 | 1009.6 |
| 20260505212504 | 80 | 11 | 4.3 | 12.2 | 0.00 | 0.00 | 0.00 | 30 | 1009.7 |
| 20260505212004 | 80 | 39 | 3.5 | 12.2 | 0.00 | 0.00 | 0.00 | 32 | 1009.7 |
| 20260505211523 | 80 | 350 | 2.6 | 9.6 | 0.00 | 0.00 | 0.00 | 33 | 1009.7 |
| 20260505211003 | 80 | 355 | 3.5 | 9.6 | 0.00 | 0.00 | 0.00 | 31 | 1009.8 |
| 20260505210500 | 80 | 31 | 3.5 | 9.6 | 0.00 | 0.00 | 0.00 | 31 | 1009.7 |
| 20260505210003 | 80 | 9 | 2.6 | 9.6 | 0.00 | 0.00 | 0.00 | 34 | 1009.8 |
| 20260505205500 | 79 | 36 | 3.5 | 11.3 | 0.00 | 0.00 | 0.00 | 33 | 1009.8 |
| 20260505205000 | 79 | 39 | 4.3 | 11.3 | 0.00 | 0.00 | 0.00 | 33 | 1009.9 |
| 20260505204459 | 79 | 349 | 3.5 | 9.6 | 0.00 | 0.00 | 0.00 | 35 | 1009.8 |
| 20260505204000 | 79 | 44 | 3.5 | 12.2 | 0.00 | 0.00 | 0.00 | 35 | 1009.9 |
| 20260505203500 | 78 | 35 | 3.5 | 12.2 | 0.00 | 0.00 | 0.00 | 35 | 1010.1 |
| 20260505203000 | 78 | 355 | 3.5 | 9.6 | 0.00 | 0.00 | 0.00 | 36 | 1010.1 |
| 20260505202747 | 78 | 61 | 3.5 | 9.6 | 0.00 | 0.00 | 0.00 | 36 | 1010.2 |
| 20260505202239 | 78 | 5 | 3.5 | 8.7 | 0.00 | 0.00 | 0.00 | 35 | 1010.2 |
| 20260505201500 | 77 | 331 | 3.5 | 9.6 | 0.00 | 0.00 | 0.00 | 35 | 1010.2 |
| 20260505201000 | 77 | 32 | 3.5 | 9.6 | 0.00 | 0.00 | 0.00 | 37 | 1010.2 |
| 20260505200500 | 77 | 40 | 3.5 | 8.7 | 0.00 | 0.00 | 0.00 | 36 | 1010.3 |
| 20260505200001 | 76 | 313 | 3.5 | 8.7 | 0.00 | 0.00 | 0.00 | 36 | 1010.3 |
| 20260505195500 | 76 | 322 | 3.5 | 8.7 | 0.00 | 0.00 | 0.00 | 36 | 1010.3 |
| 20260505195244 | 76 | 340 | 3.5 | 9.6 | 0.00 | 0.00 | 0.00 | 36 | 1010.3 |
| 20260505194500 | 76 | 49 | 4.3 | 9.6 | 0.00 | 0.00 | 0.00 | 37 | 1010.4 |
| 20260505194008 | 76 | 350 | 4.3 | 10.4 | 0.00 | 0.00 | 0.00 | 37 | 1010.3 |
| 20260505193736 | 76 | 338 | 4.3 | 10.4 | 0.00 | 0.00 | 0.00 | 37 | 1010.4 |
| 20260505193230 | 75 | 19 | 3.5 | 10.4 | 0.00 | 0.00 | 0.00 | 38 | 1010.3 |
| 20260505192501 | 75 | 336 | 3.5 | 10.4 | 0.00 | 0.00 | 0.00 | 36 | 1010.5 |
| 20260505192244 | 74 | 346 | 3.5 | 8.7 | 0.00 | 0.00 | 0.00 | 39 | 1010.5 |
| 20260505191459 | 75 | 34 | 2.6 | 8.7 | 0.00 | 0.00 | 0.00 | 38 | 1010.5 |
| 20260505190957 | 74 | 338 | 2.6 | 8.7 | 0.00 | 0.00 | 0.00 | 40 | 1010.6 |
| 20260505190450 | 74 | 325 | 3.5 | 8.7 | 0.00 | 0.00 | 0.00 | 39 | 1010.6 |
| 20260505185943 | 74 | 341 | 2.6 | 8.7 | 0.00 | 0.00 | 0.00 | 40 | 1010.6 |
| 20260505185437 | 74 | 30 | 3.5 | 8.7 | 0.00 | 0.00 | 0.00 | 40 | 1010.6 |
| 20260505184932 | 73 | 348 | 2.6 | 7.8 | 0.00 | 0.00 | 0.00 | 40 | 1010.6 |
| 20260505184426 | 72 | 349 | 2.6 | 7.0 | 0.00 | 0.00 | 0.00 | 42 | 1010.5 |
| 20260505184156 | 72 | 306 | 2.6 | 7.8 | 0.00 | 0.00 | 0.00 | 42 | 1010.6 |
| 20260505183413 | 72 | 355 | 2.6 | 7.8 | 0.00 | 0.00 | 0.00 | 43 | 1010.6 |
| 20260505182911 | 72 | 316 | 2.6 | 7.8 | 0.00 | 0.00 | 0.00 | 41 | 1010.6 |
| 20260505182401 | 71 | 309 | 3.5 | 7.8 | 0.00 | 0.00 | 0.00 | 41 | 1010.7 |
| 20260505181855 | 71 | 319 | 3.5 | 7.8 | 0.00 | 0.00 | 0.00 | 42 | 1010.6 |
| 20260505181629 | 71 | 300 | 3.5 | 7.8 | 0.00 | 0.00 | 0.00 | 42 | 1010.6 |
| 20260505180843 | 71 | 332 | 2.6 | 7.0 | 0.00 | 0.00 | 0.00 | 44 | 1010.6 |
| 20260505180337 | 71 | 303 | 2.6 | 6.1 | 0.00 | 0.00 | 0.00 | 44 | 1010.6 |
| 20260505175834 | 70 | 298 | 2.6 | 5.2 | 0.00 | 0.00 | 0.00 | 44 | 1010.5 |
| 20260505175325 | 70 | 66 | 1.7 | 5.2 | 0.00 | 0.00 | 0.00 | 45 | 1010.6 |
| 20260505175049 | 69 | 42 | 1.7 | 5.2 | 0.00 | 0.00 | 0.00 | 45 | 1010.6 |
| 20260505174313 | 69 | 348 | 1.7 | 5.2 | 0.00 | 0.00 | 0.00 | 45 | 1010.6 |
| 20260505173807 | 68 | 347 | 2.6 | 7.0 | 0.00 | 0.00 | 0.00 | 47 | 1010.6 |
| 20260505173301 | 68 | 294 | 2.6 | 7.0 | 0.00 | 0.00 | 0.00 | 47 | 1010.6 |
| 20260505172838 | 68 | 302 | 1.7 | 5.2 | 0.00 | 0.00 | 0.00 | 46 | 1010.7 |
| 20260505172553 | 68 | 317 | 1.7 | 5.2 | 0.00 | 0.00 | 0.00 | 48 | 1010.7 |
| 20260505171238 | 67 | 313 | 2.6 | 5.2 | 0.00 | 0.00 | 0.00 | 48 | 1010.6 |
| 20260505170731 | 67 | 265 | 2.6 | 4.3 | 0.00 | 0.00 | 0.00 | 48 | 1010.6 |
| 20260505170225 | 66 | 282 | 1.7 | 3.5 | 0.00 | 0.00 | 0.00 | 50 | 1010.6 |
| 20260505165722 | 66 | 22 | 0.9 | 3.5 | 0.00 | 0.00 | 0.00 | 51 | 1010.6 |
| 20260505165213 | 66 | 29 | 1.7 | 3.5 | 0.00 | 0.00 | 0.00 | 52 | 1010.6 |
| 20260505164941 | 65 | 91 | 1.7 | 4.3 | 0.00 | 0.00 | 0.00 | 52 | 1010.5 |
| 20260505164202 | 65 | 143 | 0.9 | 4.3 | 0.00 | 0.00 | 0.00 | 53 | 1010.5 |
| 20260505163656 | 64 | 150 | 0.9 | 4.3 | 0.00 | 0.00 | 0.00 | 54 | 1010.6 |
| 20260505163150 | 64 | 132 | 0.9 | 4.3 | 0.00 | 0.00 | 0.00 | 54 | 1010.7 |
| 20260505162946 | 63 | 155 | 1.7 | 4.3 | 0.00 | 0.00 | 0.00 | 57 | 1010.7 |
| 20260505162942 | 64 | 161 | 0.9 | 4.3 | 0.00 | 0.00 | 0.00 | 56 | 1010.7 |
| 20260505161631 | 63 | 188 | 0.9 | 4.3 | 0.00 | 0.00 | 0.00 | 58 | 1010.7 |
| 20260505161128 | 62 | 151 | 0.9 | 4.3 | 0.00 | 0.00 | 0.00 | 59 | 1010.8 |
| 20260505160619 | 62 | 181 | 0.9 | 4.3 | 0.00 | 0.00 | 0.00 | 60 | 1010.8 |
| 20260505160346 | 61 | 182 | 0.9 | 4.3 | 0.00 | 0.00 | 0.00 | 61 | 1010.9 |
| 20260505153038 | 58 | 128 | 0.9 | 3.5 | 0.00 | 0.00 | 0.00 | 64 | 1010.8 |
| 20260505152531 | 58 | 138 | 0.9 | 3.5 | 0.00 | 0.00 | 0.00 | 66 | 1010.8 |
| 20260505152301 | 56 | 185 | 0.9 | 2.6 | 0.00 | 0.00 | 0.00 | 68 | 1010.7 |
| 20260505151522 | 56 | 192 | 0.0 | 2.6 | 0.00 | 0.00 | 0.00 | 68 | 1010.7 |
| 20260505151019 | 55 | 126 | 0.0 | 0.0 | 0.00 | 0.00 | 0.00 | 69 | 1010.7 |
| 20260505150521 | 54 | 125 | 0.0 | 0.0 | 0.00 | 0.00 | 0.00 | 71 | 1010.7 |
| 20260505140521 | 47 | 129 | 0.0 | 0.0 | 0.00 | 0.00 | 0.00 | 82 | 1010.2 |
| 20260505140232 | 47 | 129 | 0.0 | 0.0 | 0.00 | 0.00 | 0.00 | 83 | 1010.3 |
| 20260505124412 | 46 | 129 | 0.0 | 1.7 | 0.00 | 0.00 | 0.00 | 80 | 1009.3 |
| 20260505123908 | 46 | 129 | 0.0 | 0.0 | 0.00 | 0.00 | 0.00 | 78 | 1009.2 |
| 20260505123400 | 46 | 129 | 0.0 | 0.0 | 0.00 | 0.00 | 0.00 | 77 | 1009.3 |
| 20260505122855 | 47 | 129 | 0.9 | 2.6 | 0.00 | 0.00 | 0.00 | 76 | 1009.3 |
| 20260505122348 | 48 | 129 | 1.7 | 2.6 | 0.00 | 0.00 | 0.00 | 75 | 1009.3 |
| 20260505121843 | 49 | 129 | 0.9 | 2.6 | 0.00 | 0.00 | 0.00 | 75 | 1009.3 |
| 20260505121336 | 49 | 201 | 0.0 | 0.9 | 0.00 | 0.00 | 0.00 | 77 | 1009.4 |
| 20260505120830 | 49 | 202 | 0.0 | 1.7 | 0.00 | 0.00 | 0.00 | 77 | 1009.2 |
| 20260505120324 | 49 | 202 | 0.0 | 1.7 | 0.00 | 0.00 | 0.00 | 77 | 1009.1 |
| 20260505115820 | 49 | 202 | 0.0 | 0.9 | 0.00 | 0.00 | 0.00 | 77 | 1009.1 |
| 20260505115313 | 49 | 202 | 0.0 | 1.7 | 0.00 | 0.00 | 0.00 | 77 | 1009.1 |
| 20260505114806 | 49 | 202 | 0.0 | 1.7 | 0.00 | 0.00 | 0.00 | 76 | 1009.2 |
| 20260505114300 | 49 | 202 | 0.0 | 0.9 | 0.00 | 0.00 | 0.00 | 76 | 1009.1 |
| 20260505113754 | 49 | 202 | 0.0 | 1.7 | 0.00 | 0.00 | 0.00 | 75 | 1009.1 |
| 20260505113249 | 49 | 202 | 0.0 | 1.7 | 0.00 | 0.00 | 0.00 | 74 | 1009.2 |
| 20260505112742 | 49 | 202 | 0.0 | 0.0 | 0.00 | 0.00 | 0.00 | 74 | 1009.2 |
| 20260505112236 | 50 | 202 | 0.0 | 0.0 | 0.00 | 0.00 | 0.00 | 74 | 1009.2 |
| 20260505111731 | 50 | 202 | 0.0 | 0.9 | 0.00 | 0.00 | 0.00 | 74 | 1009.1 |
| 20260505111224 | 50 | 202 | 0.0 | 0.9 | 0.00 | 0.00 | 0.00 | 73 | 1009.0 |
| 20260505110721 | 51 | 202 | 0.0 | 1.7 | 0.00 | 0.00 | 0.00 | 73 | 1009.0 |
| 20260505110219 | 51 | 202 | 0.9 | 2.6 | 0.00 | 0.00 | 0.00 | 72 | 1008.9 |
| 20260505102212 | 51 | 191 | 0.0 | 0.0 | 0.00 | 0.00 | 0.00 | 72 | 1008.7 |
| 20260505101713 | 51 | 190 | 0.0 | 0.0 | 0.00 | 0.00 | 0.00 | 72 | 1008.7 |
| 20260505101448 | 52 | 191 | 0.0 | 0.0 | 0.00 | 0.00 | 0.00 | 72 | 1008.7 |
| 20260505101215 | 52 | 191 | 0.0 | 0.0 | 0.00 | 0.00 | 0.00 | 72 | 1008.7 |
| 20260505101009 | 52 | 191 | 0.0 | 0.0 | 0.00 | 0.00 | 0.00 | 71 | 1008.7 |
| 20260505100211 | 52 | 190 | 0.0 | 0.0 | 0.00 | 0.00 | 0.00 | 71 | 1008.7 |
| 20260505095709 | 52 | 190 | 0.0 | 0.0 | 0.00 | 0.00 | 0.00 | 71 | 1008.7 |
| 20260505095209 | 52 | 191 | 0.0 | 0.0 | 0.00 | 0.00 | 0.00 | 70 | 1008.7 |
| 20260505094711 | 53 | 191 | 0.0 | 0.0 | 0.00 | 0.00 | 0.00 | 70 | 1008.9 |
| 20260505094208 | 53 | 190 | 0.0 | 0.0 | 0.00 | 0.00 | 0.00 | 69 | 1008.7 |
| 20260505093943 | 53 | 190 | 0.0 | 0.0 | 0.00 | 0.00 | 0.00 | 69 | 1008.9 |
| 20260505093202 | 53 | 191 | 0.0 | 0.0 | 0.00 | 0.00 | 0.00 | 69 | 1008.9 |
| 20260505092658 | 53 | 190 | 0.0 | 0.0 | 0.00 | 0.00 | 0.00 | 68 | 1008.9 |
| 20260505092201 | 53 | 190 | 0.0 | 0.0 | 0.00 | 0.00 | 0.00 | 68 | 1008.7 |
| 20260505091658 | 53 | 190 | 0.0 | 0.0 | 0.00 | 0.00 | 0.00 | 68 | 1008.9 |
| 20260505091200 | 54 | 190 | 0.0 | 0.0 | 0.00 | 0.00 | 0.00 | 67 | 1008.9 |
| 20260505090658 | 54 | 190 | 0.0 | 0.0 | 0.00 | 0.00 | 0.00 | 67 | 1008.7 |
| 20260505090158 | 54 | 190 | 0.0 | 0.0 | 0.00 | 0.00 | 0.00 | 67 | 1008.7 |
| 20260505085658 | 54 | 190 | 0.0 | 0.0 | 0.00 | 0.00 | 0.00 | 67 | 1008.7 |
| 20260505085200 | 54 | 190 | 0.0 | 0.0 | 0.00 | 0.00 | 0.00 | 67 | 1008.7 |
| 20260505084658 | 54 | 191 | 0.0 | 0.0 | 0.00 | 0.00 | 0.00 | 67 | 1008.6 |
| 20260505084159 | 54 | 190 | 0.0 | 0.0 | 0.00 | 0.00 | 0.00 | 67 | 1008.7 |
| 20260505083655 | 54 | 190 | 0.9 | 2.6 | 0.00 | 0.00 | 0.00 | 66 | 1008.7 |
| 20260505083213 | 55 | 191 | 0.9 | 2.6 | 0.00 | 0.00 | 0.00 | 66 | 1008.6 |
| 20260505082155 | 55 | 187 | 0.9 | 2.6 | 0.00 | 0.00 | 0.00 | 65 | 1008.5 |
| 20260505081655 | 55 | 181 | 0.0 | 0.0 | 0.00 | 0.00 | 0.00 | 65 | 1008.5 |
| 20260505081154 | 55 | 181 | 0.0 | 0.0 | 0.00 | 0.00 | 0.00 | 65 | 1008.5 |
| 20260505080654 | 55 | 181 | 0.0 | 0.0 | 0.00 | 0.00 | 0.00 | 65 | 1008.6 |
| 20260505080154 | 55 | 181 | 0.0 | 0.0 | 0.00 | 0.00 | 0.00 | 65 | 1008.5 |
| 20260505075655 | 55 | 181 | 0.0 | 0.0 | 0.00 | 0.00 | 0.00 | 65 | 1008.5 |
| 20260505075148 | 55 | 181 | 0.0 | 0.0 | 0.00 | 0.00 | 0.00 | 64 | 1008.6 |
| 20260505074643 | 55 | 181 | 0.0 | 0.0 | 0.00 | 0.00 | 0.00 | 63 | 1008.5 |
| 20260505074135 | 56 | 181 | 0.0 | 0.0 | 0.00 | 0.00 | 0.00 | 63 | 1008.5 |
| 20260505073629 | 56 | 181 | 0.0 | 0.0 | 0.00 | 0.00 | 0.00 | 63 | 1008.5 |
| 20260505073406 | 56 | 181 | 0.0 | 0.0 | 0.00 | 0.00 | 0.00 | 62 | 1008.5 |
| 20260505072624 | 56 | 181 | 0.0 | 0.0 | 0.00 | 0.00 | 0.00 | 62 | 1008.4 |
| 20260505072111 | 56 | 181 | 0.0 | 0.0 | 0.00 | 0.00 | 0.00 | 62 | 1008.5 |
| 20260505071606 | 56 | 181 | 0.9 | 2.6 | 0.00 | 0.00 | 0.00 | 61 | 1008.4 |
| 20260505071100 | 57 | 181 | 0.9 | 2.6 | 0.00 | 0.00 | 0.00 | 61 | 1008.4 |
| 20260505070553 | 57 | 181 | 0.9 | 2.6 | 0.00 | 0.00 | 0.00 | 61 | 1008.3 |
| 20260505070046 | 57 | 181 | 0.9 | 2.6 | 0.00 | 0.00 | 0.00 | 60 | 1008.3 |
| 20260505065542 | 57 | 180 | 1.7 | 3.5 | 0.00 | 0.00 | 0.00 | 60 | 1008.3 |
| 20260505065035 | 57 | 177 | 1.7 | 3.5 | 0.00 | 0.00 | 0.00 | 59 | 1008.3 |
| 20260505064811 | 57 | 163 | 0.9 | 3.5 | 0.00 | 0.00 | 0.00 | 59 | 1008.2 |
| 20260505064021 | 57 | 146 | 0.9 | 1.7 | 0.00 | 0.00 | 0.00 | 58 | 1008.2 |
| 20260505063545 | 58 | 146 | 0.0 | 1.7 | 0.00 | 0.00 | 0.00 | 57 | 1008.3 |
| 20260505063531 | 57 | 146 | 0.9 | 1.7 | 0.00 | 0.00 | 0.00 | 58 | 1008.3 |
| 20260505062503 | 58 | 146 | 0.0 | 0.9 | 0.00 | 0.00 | 0.00 | 55 | 1008.3 |
| 20260505061958 | 58 | 146 | 0.0 | 1.7 | 0.00 | 0.00 | 0.00 | 54 | 1008.3 |
| 20260505061453 | 58 | 146 | 0.9 | 3.5 | 0.00 | 0.00 | 0.00 | 54 | 1008.4 |
| 20260505060946 | 58 | 145 | 0.9 | 3.5 | 0.00 | 0.00 | 0.00 | 56 | 1008.4 |
| 20260505060439 | 58 | 263 | 0.9 | 2.6 | 0.00 | 0.00 | 0.00 | 55 | 1008.3 |
| 20260505055933 | 59 | 303 | 0.9 | 2.6 | 0.00 | 0.00 | 0.00 | 54 | 1008.2 |